Temperature
19 20 19 19 19 19 19 19 19 19 19 19 19 19 19 19 19 19 19 19 19 18 19 19 19 19 18 18 18 18 18 18 18 18 18 18 18 18 18 18 18 18 18
20 20 19 19 19 19 19 19 19 19 19 19 19 19 19 19 19 19 19 19 18 18 18 18 18 18 18 18 18 18 18 18 18 18 18 18 18 18 18 18 18 18 18
20 20 20 19 19 19 19 19 19 19 19 19 19 19 19 19 19 19 18 19 18 18 18 18 18 18 18 18 18 18 18 18 18 18 18 18 18 18 18 18 18 18 18
20 20 20 19 19 19 19 19 19 19 19 19 19 19 19 19 19 19 18 18 18 18 18 18 18 18 18 18 18 18 18 18 18 18 18 18 18 18 18 18 18 18 18
20 20 20 20 19 19 19 19 19 19 19 18 19 19 19 19 19 19 18 18 18 18 18 18 18 18 18 18 18 18 18 18 18 18 18 18 18 18 18 18 18 18 18
20 20 20 20 20 19 19 19 19 19 19 19 19 19 19 19 19 19 18 18 18 18 18 18 18 18 18 18 18 18 18 18 18 17 17 17 17 18 18 17 17 17 17
20 20 20 20 20 19 19 19 19 19 19 19 19 19 19 19 19 19 19 18 18 18 18 18 18 18 18 18 18 18 18 18 18 18 17 17 17 17 17 17 17 17 17
20 20 20 20 20 20 19 19 19 19 19 19 19 19 19 19 19 19 19 18 18 18 18 18 18 18 18 18 18 18 18 18 17 17 17 18 17 17 17 17 17 17 17
21 20 20 20 20 20 19 19 19 19 19 19 19 19 19 19 19 19 19 19 18 18 18 18 18 18 18 18 18 18 18 18 18 17 17 17 18 18 17 17 17 17 17
21 20 20 20 20 20 19 19 19 19 19 19 19 19 19 19 19 19 19 18 18 18 18 18 18 18 18 18 18 18 18 18 18 17 17 17 18 18 17 17 17 17 17
21 20 20 20 20 20 19 19 19 19 19 19 19 19 19 18 18 18 18 18 18 18 18 18 18 18 18 18 18 18 18 18 18 17 17 18 18 17 17 17 17 17 17
21 21 20 20 20 20 19 19 19 19 19 19 19 19 18 18 18 18 18 18 18 18 18 18 18 18 18 18 18 18 18 18 18 17 17 17 17 17 17 17 17 17 17
21 21 20 20 20 20 20 19 19 19 19 19 19 19 18 18 18 18 18 18 18 18 18 18 18 18 18 18 18 18 18 17 17 17 17 17 17 17 17 17 17 17 17
21 21 20 20 20 20 19 19 19 19 19 19 19 19 18 18 18 18 18 18 18 18 18 18 18 18 18 18 17 17 17 17 17 17 17 17 17 17 17 17 17 17 17
21 20 20 20 20 20 20 19 19 19 19 19 19 18 18 18 18 18 18 18 18 18 18 18 18 18 17 17 17 17 17 17 17 17 17 17 17 17 17 17 17 17 17
21 20 20 20 19 20 20 19 19 19 19 19 19 18 18 18 18 18 18 18 18 18 18 18 18 18 17 17 17 17 17 17 17 17 17 17 17 17 17 17 17 17 17
21 20 20 20 19 19 19 19 19 19 19 19 19 18 18 18 18 18 18 18 18 18 18 18 18 18 17 17 17 17 17 17 17 17 17 17 17 17 17 17 17 17 17
21 20 20 20 19 19 19 19 19 19 19 19 19 19 18 18 18 18 18 18 18 18 18 18 18 18 18 17 17 17 17 17 17 17 17 17 17 17 17 17 17 17 17
21 20 20 20 19 19 19 19 19 19 19 19 19 19 19 18 18 18 18 18 18 18 18 18 18 18 18 17 17 17 17 17 17 17 17 17 17 17 17 17 17 17 17
21 20 20 20 20 19 19 19 19 19 19 19 19 19 19 18 19 19 18 18 18 18 18 18 18 18 18 18 18 17 17 17 17 17 17 17 17 17 17 17 17 17 17
21 20 20 20 20 19 19 19 19 19 19 19 19 19 19 18 19 19 18 18 18 18 18 18 18 18 18 18 18 17 17 18 18 18 18 17 17 17 17 17 17 17 17
21 21 20 20 20 19 19 19 19 19 19 19 19 19 19 19 19 19 18 18 18 18 18 18 18 18 18 18 18 18 17 18 18 18 18 18 17 17 17 17 17 17 17
21 21 20 20 20 20 20 19 19 19 19 19 19 19 19 19 19 19 19 18 18 18 18 18 18 18 18 18 18 18 18 18 18 18 18 18 18 17 17 17 17 17 17
22 21 21 20 20 20 20 19 19 19 19 19 19 19 19 19 19 19 19 19 18 18 18 18 18 18 18 18 18 18 18 18 18 17 18 18 18 18 17 17 17 17 17
23 22 21 21 20 20 20 20 19 19 19 19 19 19 19 19 19 19 19 19 18 18 18 18 18 18 18 18 18 18 19 18 18 18 17 18 18 18 18 17 17 17 17
23 22 21 21 21 20 20 20 20 19 19 19 19 19 19 19 19 19 19 19 18 18 18 18 18 18 18 18 18 18 18 18 18 18 18 18 18 18 18 17 17 17 17
Wind_Speed
8 9 10 10 10 10 10 10 10 10 10 10 10 10 10 10 11 11 12 12 13 13 13 14 13 13 13 13 13 13 13 13 12 12 12 11 11 10 9 9 9 10 12
10 10 11 10 10 10 10 10 10 10 10 9 9 9 10 10 10 11 11 12 12 12 12 12 12 12 13 12 12 13 14 13 13 13 13 12 11 9 8 8 7 10 12
11 11 11 11 10 10 10 10 10 10 10 9 9 9 9 9 9 10 11 11 11 11 11 12 12 12 12 12 12 12 13 13 13 13 12 11 10 10 9 9 9 10 10
12 12 12 11 10 10 10 10 10 10 9 8 8 8 8 8 9 10 10 10 10 10 10 11 11 11 11 11 11 12 13 12 13 12 9 9 10 11 10 10 10 10 10
13 12 13 11 10 10 10 10 9 9 9 8 7 7 7 8 9 9 10 9 9 10 10 10 10 10 11 11 12 12 12 11 11 10 8 8 10 11 11 10 10 9 9
13 13 13 11 10 9 9 9 9 8 8 7 6 6 7 8 8 9 9 9 9 9 9 9 9 9 10 11 11 11 11 10 8 7 7 9 9 11 11 10 10 9 9
11 12 12 11 10 9 8 8 8 8 7 6 6 6 7 8 8 8 8 9 9 8 8 9 9 9 10 10 11 10 10 9 7 7 8 9 10 12 11 11 10 9 9
10 11 11 11 10 9 7 7 7 6 6 6 6 7 7 8 8 8 8 9 8 8 7 7 8 9 10 10 10 10 9 7 7 7 9 10 11 12 11 10 10 9 8
9 9 9 9 10 9 8 8 7 6 5 5 6 6 6 8 9 9 9 8 8 7 7 7 8 10 11 11 11 10 9 7 4 6 8 9 11 12 11 10 9 8 8
7 7 7 7 8 9 9 8 7 6 5 5 5 5 6 8 9 10 9 8 7 7 7 7 8 10 12 12 11 10 9 6 5 7 7 9 12 12 11 10 8 7 7
6 6 6 5 5 5 7 8 7 7 5 5 5 5 5 5 7 8 9 8 8 8 7 8 10 10 12 11 11 10 7 5 7 7 8 10 12 11 11 9 8 7 7
5 6 5 5 4 4 5 6 5 5 5 5 4 4 4 4 5 7 9 9 8 8 8 8 10 9 8 8 10 9 5 6 7 8 9 11 11 11 10 9 7 7 7
4 4 6 5 4 4 4 4 3 3 4 4 4 3 3 4 5 6 6 7 7 8 6 8 8 6 5 5 5 6 5 5 6 7 9 11 10 10 9 8 7 7 7
4 5 6 6 5 5 4 2 3 3 3 3 4 3 4 3 4 4 3 4 5 5 5 5 5 5 6 6 6 6 5 5 6 8 10 11 10 10 9 7 7 7 6
5 6 7 6 5 4 3 2 3 3 4 4 3 3 4 3 3 4 3 3 4 5 5 5 5 5 5 5 5 6 5 5 7 8 9 11 11 10 9 8 7 7 6
5 5 6 6 6 4 2 2 2 3 4 4 3 4 4 4 4 4 3 3 4 4 5 5 6 5 4 4 4 5 4 4 6 7 9 9 10 10 9 8 7 6 6
5 5 6 6 6 4 2 2 2 3 4 4 4 5 4 4 4 4 3 3 3 5 5 4 5 4 4 4 4 5 4 4 4 5 7 8 8 9 9 8 7 7 7
6 5 5 5 6 5 3 2 2 3 3 3 4 4 4 4 5 4 3 3 4 4 4 4 3 3 3 3 3 3 4 4 5 5 5 7 7 8 9 9 8 7 7
6 6 5 4 5 4 4 3 2 3 3 3 4 4 3 4 4 3 3 3 4 3 3 4 4 3 3 3 3 3 3 3 4 4 5 5 6 7 8 9 10 9 8
7 6 5 4 4 3 3 2 2 3 2 2 4 3 3 4 4 3 4 3 3 3 2 2 4 3 3 3 2 3 2 3 3 4 4 5 6 7 7 8 8 8 9
8 6 5 4 4 2 1 1 2 2 2 2 4 3 4 3 3 2 2 3 3 3 3 3 3 3 3 3 3 2 1 3 4 3 3 3 4 5 6 7 8 7 7
8 7 6 5 4 3 2 1 2 2 1 2 3 3 3 3 2 3 2 2 3 2 3 3 3 2 2 2 2 2 1 1 2 3 4 4 4 4 4 5 6 6 6
9 8 6 5 5 4 4 2 2 2 1 2 2 3 2 3 3 2 2 1 2 3 3 3 3 3 2 2 2 1 1 1 1 1 2 3 3 3 3 4 5 6 6
10 9 7 6 5 3 3 3 3 3 2 2 2 2 2 2 3 3 3 2 1 1 2 3 3 3 3 2 2 1 1 1 1 1 1 2 2 3 3 3 4 5 6
11 10 9 7 5 4 3 2 2 1 1 1 2 3 2 2 2 3 3 2 2 1 2 1 1 2 2 2 2 1 1 1 2 2 2 2 2 3 3 3 4 4 6
10 10 10 8 6 5 4 4 2 2 2 1 1 2 2 2 2 3 3 2 2 2 1 2 2 2 2 2 2 2 1 1 1 1 2 2 2 2 2 2 3 4 5
Wind_Direction
96 95 87 81 77 76 74 74 78 83 86 90 94 98 103 108 112 115 119 120 125 128 134 138 140 140 140 141 141 139 138 136 135 135 138 136 135 134 134 135 136 124 121
102 100 92 83 80 78 77 77 79 87 89 94 96 101 106 110 114 117 123 124 128 132 136 139 142 140 141 140 140 141 141 142 141 139 139 140 140 138 135 133 127 126 130
105 106 97 87 82 81 80 81 79 83 86 93 99 104 110 113 115 119 127 129 131 136 138 142 143 142 143 144 145 149 150 151 152 150 144 139 143 144 137 134 129 131 131
108 104 100 94 87 85 83 83 82 81 83 88 96 105 113 118 121 123 128 130 132 137 140 145 147 149 148 148 148 152 158 159 161 163 155 141 139 143 138 134 137 136 138
105 103 103 102 94 88 85 85 83 79 80 84 91 102 111 120 122 124 128 130 132 136 143 149 152 154 152 153 154 156 160 164 170 171 146 133 128 140 144 141 139 137 140
103 103 107 108 101 93 88 88 85 81 79 80 85 101 115 126 126 128 128 132 133 134 141 151 154 156 158 158 161 164 167 166 170 159 145 133 133 146 148 146 145 142 141
103 109 113 114 110 104 96 94 90 85 81 77 81 99 121 127 125 124 126 131 132 133 138 146 155 159 159 162 165 170 172 174 169 147 134 127 138 148 151 147 146 148 149
100 107 117 126 123 114 110 107 100 93 87 83 84 99 116 127 126 123 124 129 133 135 140 149 160 164 166 169 169 173 176 183 152 138 131 133 146 150 152 148 150 154 158
90 102 118 130 133 128 128 122 116 112 106 103 105 105 112 131 131 130 130 133 139 142 146 150 160 168 169 171 172 175 180 187 156 138 135 136 147 147 148 149 153 157 165
92 98 109 118 130 141 137 136 133 129 125 126 127 122 123 138 141 140 137 139 145 147 150 153 156 158 165 168 172 175 180 183 147 133 126 136 141 141 145 150 154 162 170
88 91 95 95 116 125 126 131 143 144 144 138 145 147 148 150 144 146 138 137 143 151 153 151 148 151 159 167 175 174 174 149 125 120 123 135 139 141 144 150 153 162 172
89 92 84 79 79 102 111 127 147 137 148 142 130 151 165 136 129 132 135 143 145 148 148 148 150 153 161 166 173 173 158 134 122 119 128 137 140 143 145 151 157 168 174
99 94 92 79 60 60 78 110 122 129 129 126 119 126 126 120 119 124 134 144 152 154 155 150 152 155 158 140 139 143 136 128 122 124 137 140 143 144 147 152 160 172 179
96 84 83 80 65 53 54 77 114 106 110 111 119 116 110 100 103 106 118 133 144 144 132 133 128 122 120 116 119 122 128 124 132 130 140 144 146 150 153 159 164 173 183
98 90 85 83 72 60 44 24 87 94 100 102 99 95 105 102 96 100 111 118 124 124 129 126 118 117 116 115 116 118 119 119 129 133 138 145 148 152 158 165 172 179 186
104 98 96 91 81 68 66 52 59 91 101 101 95 92 104 104 103 110 107 102 109 112 111 126 129 127 123 120 119 112 111 118 120 128 135 143 149 156 161 166 170 176 180
108 102 109 107 95 80 61 45 81 94 103 106 109 104 107 112 116 117 116 117 117 122 124 120 123 127 132 134 131 130 126 121 122 129 137 146 155 162 167 171 173 180 181
112 103 96 101 105 103 84 47 50 72 97 107 116 111 112 110 120 128 131 128 128 126 126 125 137 136 132 130 134 145 134 134 143 145 143 145 155 162 170 178 175 180 184
118 114 106 89 100 108 108 97 90 76 66 84 99 102 107 105 110 126 123 132 151 136 128 137 129 130 128 131 136 146 150 150 153 155 154 153 156 151 158 175 182 187 192
126 126 122 110 96 105 115 121 105 92 89 93 93 89 100 111 113 119 124 127 130 113 107 115 120 137 143 147 136 120 148 162 159 169 175 165 163 164 167 170 173 189 198
135 133 127 122 118 107 89 131 129 112 109 97 106 105 110 111 120 118 103 115 118 121 135 138 134 152 159 151 137 131 172 179 172 179 184 175 165 166 165 167 173 179 183
146 145 143 144 137 137 123 116 120 117 117 116 102 120 128 128 142 143 123 135 128 140 153 156 154 160 175 164 164 169 173 155 185 187 177 186 179 156 167 174 171 175 170
154 154 152 144 139 145 147 144 124 122 106 97 113 125 132 156 156 137 142 139 151 163 158 172 181 183 197 208 205 223 189 147 146 163 181 167 162 166 179 165 174 169 174
160 156 149 145 140 141 150 151 156 153 160 153 148 137 143 168 162 165 159 156 179 183 168 198 166 205 207 221 217 213 216 159 167 157 201 180 180 191 200 192 171 159 165
163 159 155 146 146 148 152 150 167 152 164 155 149 155 157 166 178 178 173 170 184 209 194 207 173 238 249 246 245 243 214 196 199 175 192 191 201 206 197 190 178 165 163
161 158 155 150 155 161 165 157 163 169 191 178 174 183 181 180 185 185 186 177 190 225 226 223 225 235 254 274 278 269 241 229 204 188 208 198 207 214 202 191 179 169 163
Height
1502 1501 1500 1500 1499 1498 1498 1498 1497 1498 1498 1499 1500 1501 1502 1503 1505 1506 1508 1510 1512 1514 1516 1518 1520 1522 1524 1526 1528 1530 1532 1534 1536 1538 1540 1542 1544 1546 1548 1549 1551 1552 1553
1503 1502 1502 1501 1500 1500 1499 1499 1499 1499 1500 1500 1501 1502 1503 1504 1506 1507 1509 1511 1512 1514 1517 1519 1521 1523 1525 1527 1529 1531 1533 1535 1536 1538 1539 1542 1544 1547 1548 1550 1551 1553 1554
1504 1503 1503 1502 1502 1501 1501 1501 1501 1501 1501 1502 1502 1503 1504 1505 1506 1508 1510 1512 1513 1515 1517 1519 1522 1523 1525 1527 1529 1531 1533 1535 1537 1539 1541 1543 1545 1547 1549 1550 1552 1553 1554
1505 1505 1504 1504 1504 1503 1503 1502 1502 1502 1502 1502 1503 1504 1505 1506 1507 1509 1511 1512 1514 1516 1518 1520 1522 1524 1526 1527 1529 1531 1533 1535 1537 1540 1542 1544 1545 1547 1549 1550 1552 1553 1554
1506 1506 1506 1505 1505 1505 1504 1504 1504 1504 1504 1503 1503 1503 1505 1506 1508 1510 1511 1513 1515 1516 1518 1520 1522 1524 1526 1528 1530 1532 1534 1536 1538 1541 1542 1544 1546 1547 1548 1550 1552 1553 1554
1508 1507 1507 1507 1506 1506 1505 1505 1505 1505 1504 1504 1503 1502 1503 1506 1508 1510 1512 1513 1515 1517 1518 1520 1522 1523 1525 1528 1530 1532 1534 1536 1538 1541 1543 1544 1546 1547 1548 1550 1551 1553 1554
1509 1508 1508 1508 1507 1507 1506 1506 1506 1506 1505 1505 1503 1501 1502 1505 1508 1511 1512 1514 1515 1517 1518 1519 1521 1523 1525 1528 1530 1532 1534 1536 1539 1541 1542 1544 1545 1547 1548 1549 1551 1553 1554
1510 1510 1509 1509 1509 1508 1508 1508 1507 1507 1507 1506 1504 1502 1504 1506 1509 1511 1513 1514 1516 1517 1518 1519 1521 1522 1524 1527 1530 1532 1535 1537 1539 1540 1542 1543 1545 1546 1548 1549 1551 1552 1554
1512 1511 1511 1510 1510 1509 1509 1509 1509 1508 1508 1508 1507 1506 1506 1508 1510 1512 1513 1515 1516 1517 1518 1519 1520 1521 1524 1527 1530 1532 1535 1537 1539 1540 1541 1543 1544 1546 1547 1549 1550 1552 1553
1513 1513 1512 1512 1512 1511 1511 1511 1510 1510 1510 1509 1509 1509 1509 1510 1511 1513 1514 1515 1516 1518 1519 1520 1520 1521 1523 1527 1530 1533 1535 1537 1539 1540 1541 1543 1544 1545 1547 1548 1550 1551 1553
1515 1515 1514 1514 1514 1514 1513 1513 1512 1512 1512 1511 1511 1511 1512 1512 1513 1514 1515 1516 1517 1518 1520 1520 1521 1523 1525 1528 1531 1534 1536 1537 1539 1540 1541 1543 1544 1545 1546 1548 1550 1551 1552
1516 1516 1516 1515 1515 1515 1515 1515 1515 1514 1514 1514 1513 1514 1514 1514 1515 1516 1517 1518 1519 1520 1521 1522 1523 1525 1527 1530 1533 1535 1536 1538 1539 1540 1542 1543 1544 1545 1547 1548 1550 1551 1552
1517 1517 1517 1517 1516 1517 1516 1516 1516 1516 1516 1516 1516 1516 1516 1517 1517 1519 1519 1519 1520 1521 1522 1523 1525 1526 1528 1531 1533 1535 1537 1539 1540 1541 1542 1543 1544 1545 1547 1548 1549 1550 1551
1518 1518 1518 1518 1517 1517 1517 1517 1518 1518 1518 1518 1518 1518 1518 1519 1519 1520 1521 1521 1522 1523 1524 1525 1526 1528 1530 1532 1534 1535 1537 1539 1540 1541 1542 1544 1545 1546 1547 1548 1549 1550 1551
1519 1519 1519 1518 1518 1518 1518 1518 1519 1519 1519 1519 1519 1519 1520 1520 1521 1521 1522 1523 1524 1525 1526 1527 1528 1530 1532 1533 1535 1536 1538 1539 1541 1542 1543 1544 1545 1546 1547 1548 1548 1549 1550
1519 1520 1519 1519 1519 1519 1519 1519 1520 1520 1521 1521 1521 1521 1521 1521 1522 1523 1524 1525 1525 1526 1527 1529 1530 1531 1533 1534 1535 1537 1538 1540 1541 1542 1543 1544 1545 1546 1546 1547 1548 1549 1549
1520 1520 1520 1520 1520 1520 1520 1521 1521 1522 1521 1522 1522 1522 1522 1523 1523 1524 1525 1526 1527 1528 1529 1530 1531 1532 1534 1535 1536 1537 1539 1540 1541 1542 1543 1543 1544 1545 1546 1547 1548 1548 1549
1521 1521 1521 1522 1521 1521 1521 1521 1522 1523 1523 1523 1523 1523 1523 1524 1524 1525 1526 1527 1528 1529 1530 1531 1532 1533 1534 1535 1536 1538 1539 1540 1541 1542 1543 1544 1544 1545 1546 1547 1547 1548 1548
1521 1521 1521 1522 1522 1522 1522 1522 1522 1523 1523 1524 1524 1524 1524 1525 1526 1526 1527 1528 1530 1531 1532 1533 1533 1534 1535 1535 1537 1538 1539 1540 1541 1542 1543 1544 1545 1545 1546 1546 1547 1547 1547
1521 1522 1522 1522 1522 1523 1523 1523 1523 1524 1524 1524 1525 1525 1526 1526 1527 1528 1529 1530 1531 1532 1533 1533 1534 1535 1535 1536 1538 1539 1539 1540 1541 1542 1543 1544 1545 1545 1545 1545 1546 1546 1546
1521 1521 1522 1522 1522 1523 1523 1523 1524 1525 1526 1526 1526 1526 1527 1528 1529 1529 1530 1531 1531 1532 1533 1534 1534 1535 1536 1537 1537 1538 1539 1540 1541 1541 1542 1543 1544 1544 1545 1545 1545 1545 1545
1521 1521 1522 1523 1523 1523 1523 1524 1525 1526 1527 1527 1527 1528 1528 1529 1529 1530 1531 1531 1532 1533 1534 1534 1535 1535 1536 1537 1538 1538 1539 1541 1540 1541 1542 1542 1543 1543 1544 1544 1544 1544 1544
1520 1521 1522 1522 1523 1524 1524 1525 1526 1527 1528 1528 1528 1528 1529 1529 1530 1530 1531 1532 1532 1533 1534 1534 1535 1536 1536 1537 1538 1539 1539 1539 1540 1541 1541 1542 1542 1542 1543 1543 1543 1543 1543
1519 1520 1521 1522 1523 1524 1525 1525 1526 1527 1528 1529 1529 1529 1529 1530 1530 1530 1531 1532 1532 1533 1534 1534 1535 1536 1536 1536 1537 1538 1538 1538 1539 1540 1541 1541 1541 1541 1541 1542 1541 1542 1542
1518 1519 1520 1521 1522 1523 1524 1526 1527 1527 1528 1529 1529 1529 1530 1530 1530 1530 1531 1531 1532 1533 1533 1534 1534 1535 1535 1536 1536 1537 1537 1538 1538 1539 1539 1540 1539 1539 1540 1540 1539 1539 1539
1516 1518 1519 1520 1521 1523 1524 1525 1526 1527 1528 1528 1529 1529 1529 1530 1530 1530 1530 1531 1531 1532 1532 1533 1533 1533 1534 1534 1535 1535 1536 1536 1537 1537 1537 1538 1538 1538 1538 1538 1538 1538 1537